星链-2161 (STARLINK-2161 )

导读 | 星芒AI

STARLINK-2161 是 SpaceX Starlink 项目中的一颗低轨通信卫星,属于第二代 Starlink 卫星(Gen2)系列。该卫星于2023年发射,旨在为全球用户提供高速、低延迟的互联网服务。相比第一代卫星,STARLINK-2161 配备了更先进的激光通信系统和更高性能的星载设备,提升了网络容量与连接稳定性。作为 Starlink 卫星群的一部分,它支持偏远地区和传统网络难以覆盖区域的宽带接入,推动全球互联网普及。

基本信息
目录编号:
47747
目录名称:
STARLINK-2161
国际标识:
2021-017AB
轨道中心:
EARTH
卫星名称:
星链-2161
卫星全名:
星链-2161 (STARLINK-2161 )
卫星状态:
在轨 (已飞行1701 天)
发射日期:
2021-03-04 UTC
国别 :
美国 (US)
星等 :
--
轨道信息
数据来源 国际轨道数据
星历时间: 2025-10-30T02:23:10+0800
13小时前
查看轨道信息
半长轴: 6925.294km
偏心率: 0.0001573
轨道倾角: 53.054°
近地点辐角 89.946°
升交点赤经 69.357°
平近点角 270.171°
近地点: 546.069km
远地点: 548.249km
周期: 95.591分钟
每日圈数: 15.06418
详细信息
固有亮度:
5
最大亮度:
2.5
卫星平台:
Starlink V1.0
覆盖范围:
全球
运营商:
太空探索技术公司
运营商所在国:
美国
制造商(研发单位):
太空探索技术公司
制造商所在国:
美国
使用方式:
暂无
卫星简介
星链(Starlink)计划是由太空探索技术公司(SpaceX)提出的一个巨型低轨卫星互联网星座项目,计划在2019年至2024年间在太空搭建由约1.2万颗卫星组成的“星链”网络,其中1584颗将部署在地球上空550千米处的近地轨道,并从2020年开始工作。该卫星仍在工作。
2D轨道图
3D轨道图
轨道高度分析图
轨道倾角分析图
轨道综合分析图
查看轨道综合分析图